SCP
0 0 0 0 0 0 0 0 0 0 0 0 0 0 0 0 0 0 0 0 0 1 0 0 1 1 0 0 0 0 0 0 0 0 0 0 0 0 0 0 0 0 0 0 0 0 0 0 0
0 0 0 0 0 0 0 0 0 0 0 0 0 0 0 0 0 0 0 0 0 1 1 1 1 1 0 0 0 0 0 0 0 0 0 0 0 0 0 0 0 0 0 0 0 0 0 0 0
0 0 0 0 0 0 0 0 0 0 0 0 0 0 0 0 0 0 0 0 1 1 1 1 1 1 0 0 0 0 0 0 0 0 0 0 0 0 0 0 0 0 0 0 0 0 0 0 0
0 0 0 0 0 0 0 0 0 0 0 0 0 0 0 0 0 0 0 1 1 1 1 1 1 1 0 0 0 0 0 0 0 0 0 0 0 0 0 0 0 0 0 0 0 0 0 0 0
0 0 0 0 0 0 0 0 0 0 0 0 0 0 0 0 0 0 1 1 1 1 1 1 1 1 1 0 0 0 0 0 0 0 0 0 0 0 0 0 0 0 0 0 0 0 0 0 0
0 0 0 0 0 0 0 0 0 0 0 0 0 0 0 0 0 1 1 1 1 1 1 1 1 1 1 0 0 0 0 0 0 0 0 0 0 0 0 0 0 0 0 0 0 0 0 0 0
0 0 0 0 0 0 0 0 0 0 0 0 0 0 0 0 0 1 1 1 1 1 1 1 1 1 0 0 0 0 0 0 0 0 0 0 0 0 0 0 0 0 0 0 0 0 0 0 0
0 0 0 0 0 0 0 0 0 0 0 0 0 0 0 1 1 1 1 1 1 1 1 1 1 0 0 0 0 0 0 0 0 0 0 0 0 0 0 0 0 0 0 0 0 0 0 0 0
0 0 0 0 0 0 0 0 0 0 1 1 1 1 1 1 1 1 1 1 1 1 1 1 0 0 0 0 0 0 0 0 0 0 0 0 0 0 0 0 0 0 0 0 0 0 0 0 0
0 0 0 0 0 0 0 0 0 0 1 1 1 1 1 1 1 1 1 1 1 1 1 0 0 0 0 0 0 0 0 0 0 0 0 0 0 0 0 0 0 0 0 0 0 0 0 0 0
0 0 0 0 0 0 0 0 0 1 1 1 1 1 1 1 1 1 1 1 1 0 0 0 0 0 0 0 0 0 0 0 0 0 0 0 0 0 0 0 0 0 0 0 0 0 0 0 0
0 0 0 0 0 0 0 0 0 1 1 1 1 1 2 1 1 1 1 0 0 0 0 0 0 0 0 0 0 0 0 0 0 0 0 0 0 0 0 0 0 0 0 0 0 0 0 0 0
0 0 0 0 0 0 0 0 0 0 1 1 1 1 1 1 1 1 1 0 0 0 0 0 0 0 0 0 0 0 0 0 0 0 0 0 0 0 0 0 0 0 0 0 0 0 0 0 0
0 0 0 0 0 0 0 0 0 0 1 1 1 1 1 1 1 1 1 0 0 0 0 0 0 0 0 0 0 0 0 0 0 0 0 0 0 0 0 0 0 0 0 0 0 0 0 0 0
0 0 0 0 0 0 0 0 0 0 1 1 1 1 1 1 1 1 1 0 0 0 0 0 0 0 0 0 0 0 0 0 0 0 0 0 0 0 0 0 0 0 0 0 0 0 0 0 0
0 0 0 0 0 0 0 0 0 0 1 1 1 1 0 0 0 0 0 0 0 0 0 0 0 0 0 0 0 0 0 0 0 0 0 0 0 0 0 0 0 0 0 0 0 0 0 0 0
0 0 0 0 0 0 0 0 0 0 0 0 0 0 0 0 0 0 0 0 0 0 0 0 0 0 0 0 0 0 0 0 0 0 0 0 0 0 0 0 0 0 0 0 0 0 0 0 0
0 0 0 0 0 0 0 0 0 0 0 0 0 0 0 0 0 0 0 0 0 0 0 0 0 0 0 0 0 0 0 0 0 0 0 0 0 0 0 0 0 0 0 0 0 0 0 0 0
0 0 0 0 0 0 0 0 0 0 0 0 0 0 0 0 0 0 0 0 0 0 0 0 0 0 0 0 0 0 0 0 0 0 0 0 0 0 0 0 0 0 0 0 0 0 0 0 0
0 0 0 0 0 0 0 0 0 0 0 0 0 0 0 0 0 0 0 0 0 0 0 0 0 0 0 0 0 0 0 0 0 0 0 0 0 0 0 0 0 0 0 0 0 0 0 0 0
0 0 0 0 0 0 0 0 0 0 0 0 0 0 0 0 0 0 0 0 0 0 0 0 0 0 0 0 0 0 0 0 0 0 0 0 0 0 0 0 0 0 0 0 0 0 0 0 0
0 0 0 0 0 0 0 0 0 0 0 0 0 0 0 0 0 0 0 0 0 0 0 0 0 0 0 0 0 0 0 0 0 0 0 0 0 0 0 0 0 0 0 0 0 0 0 0 0
0 0 0 0 0 0 0 0 0 0 0 0 0 0 0 0 0 0 0 0 0 0 0 0 0 0 0 0 0 0 0 0 0 0 -0 0 0 0 0 0 0 0 0 0 0 0 0 0 0
0 0 0 0 0 0 0 0 0 0 0 0 0 0 0 0 0 0 0 0 0 0 0 0 0 0 0 0 0 0 0 0 0 -0 -0 -0 -0 -0 -0 0 0 0 0 0 0 0 0 0 0
0 0 0 0 0 0 0 0 0 0 0 0 0 0 0 0 0 0 0 0 0 0 0 0 0 0 0 0 0 0 0 0 -0 -0 0 -0 -0 -0 0 0 0 0 0 0 0 0 0 0 0
0 0 0 0 0 0 0 0 0 0 0 0 0 0 0 0 0 0 0 0 -0 -0 0 0 0 0 0 0 0 0 0 0 0 0 0 0 0 0 0 0 0 0 0 0 0 0 0 0 0
0 0 0 0 0 0 0 0 0 0 0 0 0 0 0 0 0 0 0 -0 -0 -0 0 0 0 0 -0 -0 0 0 0 0 0 0 0 0 0 0 0 0 0 0 0 0 0 0 0 0 0
0 0 0 0 0 0 0 0 0 0 0 0 0 0 0 0 0 0 0 -0 -0 -0 -0 -0 0 -0 0 0 0 0 0 0 0 0 0 0 0 0 0 0 0 0 0 0 0 0 0 0 0
0 0 0 0 0 0 0 0 0 0 0 0 0 0 0 0 0 0 -0 -0 -0 -0 -0 -0 -0 0 0 0 0 0 0 0 0 0 0 0 0 0 0 0 0 0 0 0 0 0 0 0 0
0 0 0 0 0 0 0 0 0 0 0 0 0 0 0 0 0 0 -0 -0 -0 -0 -0 -0 -0 0 0 0 0 0 0 0 0 0 0 0 0 0 0 0 0 0 0 0 0 0 0 0 0
Wind_Speed
4 2 1 0 2 4 1 2 1 1 1 2 3 3 2 1 1 2 1 8 14 13 10 13 16 17 17 16 16 16 15 15 15 14 14 13 13 12 12 11 10 10 10 10 10 10 10 10 10
3 3 0 2 4 2 3 2 1 1 2 3 4 3 4 2 2 3 3 8 13 12 9 11 16 17 16 16 15 15 15 15 14 14 13 12 12 12 11 10 10 9 9 9 9 9 10 10 10
4 2 2 3 2 2 3 2 3 1 3 3 3 3 3 1 2 3 5 11 11 10 8 11 17 16 16 15 15 14 14 14 14 13 12 12 11 11 10 10 9 9 9 9 9 9 9 9 9
2 2 3 3 1 3 4 3 3 4 2 2 4 4 3 1 2 6 12 13 11 8 7 10 16 16 15 15 14 14 13 13 13 12 11 11 11 10 10 9 9 8 8 8 9 9 9 9 9
3 3 4 2 4 4 3 3 3 3 3 3 5 5 2 2 7 13 14 13 12 9 6 9 15 15 15 14 14 13 13 12 12 11 11 10 9 9 9 9 8 8 8 8 8 8 8 8 7
4 4 3 1 4 4 3 1 2 2 3 3 5 5 2 3 9 12 12 11 10 10 7 7 14 15 14 13 13 12 12 11 11 11 10 9 9 8 8 8 8 8 7 7 7 7 8 7 6
4 3 2 2 3 4 2 1 2 2 3 3 4 5 2 3 6 10 10 9 8 8 6 5 6 9 12 13 12 12 11 11 10 10 9 9 8 7 7 7 7 7 7 7 7 7 7 6 5
4 4 0 2 3 4 1 1 0 1 2 3 3 6 5 5 9 10 9 8 7 6 5 4 4 4 4 6 11 11 10 10 9 9 8 8 7 7 7 6 6 6 7 6 6 6 6 6 5
4 4 2 4 4 4 1 1 1 1 3 3 3 2 6 13 12 11 9 7 6 6 4 4 4 3 4 4 7 8 9 8 8 7 8 6 2 2 2 4 5 6 6 6 6 6 6 5 4
4 3 6 5 5 4 2 2 2 2 2 2 4 6 12 13 12 12 11 10 8 7 5 4 4 3 3 4 3 2 3 3 3 2 2 2 2 1 1 2 4 6 6 5 6 6 5 3 1
5 6 5 5 5 3 2 2 1 4 2 4 6 11 13 13 11 10 9 8 7 6 6 4 3 2 3 2 2 1 1 2 2 2 2 2 2 1 0 0 1 2 3 2 3 2 1 1 1
4 5 4 4 1 1 2 3 2 1 1 2 6 11 13 13 10 9 8 6 5 5 5 4 4 3 2 2 2 2 1 1 1 2 2 2 2 1 1 0 0 0 0 1 1 1 1 1 2
4 4 2 2 1 2 4 4 3 2 4 6 9 10 10 10 9 7 7 6 5 5 4 4 4 4 3 2 2 3 2 2 2 2 2 3 2 2 1 1 1 0 0 1 1 1 1 1 1
3 1 1 2 2 2 5 3 3 2 5 7 8 9 9 9 8 8 7 6 5 5 5 4 4 4 3 2 2 2 2 2 2 2 2 3 2 2 2 1 1 1 0 1 1 1 1 1 1
0 1 3 3 2 1 4 4 1 1 5 6 6 7 8 7 7 6 6 7 7 6 5 5 4 4 3 2 2 2 2 2 2 2 2 3 2 2 2 1 1 0 0 1 1 1 1 1 1
2 2 2 3 2 1 3 1 1 1 4 5 5 6 6 5 6 5 4 5 5 5 5 5 4 4 4 3 2 2 2 2 2 2 2 2 3 3 2 2 1 1 1 1 1 1 1 0 1
4 1 2 3 2 2 3 2 1 0 3 4 3 5 6 6 5 5 5 5 5 5 6 5 5 5 4 4 3 3 3 3 2 2 2 2 2 3 3 2 1 1 2 1 1 1 1 0 1
4 3 3 2 1 2 2 1 1 1 3 3 3 4 5 6 6 6 6 6 5 5 5 6 5 5 5 4 3 3 3 2 2 2 1 2 2 2 3 2 2 2 2 2 1 2 1 0 1
3 3 4 3 0 2 2 1 2 2 2 3 4 5 6 5 5 6 6 7 6 5 5 5 6 5 5 3 3 2 2 1 2 2 2 2 2 2 3 2 2 2 2 1 1 1 2 2 1
4 3 3 1 1 2 2 0 1 2 3 4 4 6 7 6 6 6 6 6 5 5 4 5 5 5 4 3 2 2 3 2 1 1 2 2 2 2 2 3 2 1 2 2 2 2 1 1 2
4 5 4 3 2 3 2 1 1 2 1 2 3 3 5 8 9 8 7 6 6 6 6 5 5 5 5 4 3 3 3 3 2 2 2 3 2 1 2 2 2 1 1 1 1 1 2 1 1
4 3 4 4 3 1 1 1 4 2 2 3 4 4 5 6 7 7 7 7 6 5 5 5 5 5 4 4 4 4 3 2 1 1 1 2 3 2 2 2 2 2 1 1 0 1 1 1 0
3 5 6 4 4 2 1 1 6 1 4 6 6 6 6 6 7 7 8 8 7 6 5 5 5 4 4 4 5 5 4 2 1 2 3 3 3 3 3 3 2 2 1 1 1 1 1 1 1
7 6 6 5 5 1 1 2 6 5 7 6 7 7 7 7 7 6 6 7 6 6 5 5 5 4 4 4 5 5 5 4 3 2 2 2 2 2 3 2 2 2 1 0 0 0 0 0 1
4 6 4 4 4 4 1 2 8 6 6 8 10 10 9 8 7 7 8 8 8 8 7 6 6 5 4 5 4 4 5 5 4 3 2 1 0 1 1 1 1 1 0 0 0 0 0 1 1
4 6 6 4 4 4 1 5 8 4 4 5 6 7 8 8 8 9 9 9 9 9 8 7 7 5 5 5 4 4 4 3 2 3 2 2 1 1 1 1 1 1 1 0 0 0 1 1 1
6 4 4 7 2 1 4 6 7 1 2 4 6 7 8 9 9 9 9 9 9 9 9 9 8 6 5 5 4 4 4 4 3 3 2 2 1 1 1 1 1 1 1 1 0 1 1 1 2
4 8 5 5 4 2 4 4 5 5 6 7 7 9 9 8 8 8 8 9 8 8 8 7 7 7 6 5 5 4 4 4 3 3 3 2 2 1 1 1 1 1 1 1 1 1 2 2 2
4 4 5 4 4 5 3 8 8 10 10 11 11 10 10 10 10 9 8 8 7 7 7 7 7 6 5 6 5 4 4 4 3 3 3 2 2 2 2 2 2 2 2 2 2 3 3 3 3
4 7 8 5 4 4 3 9 5 7 8 10 11 10 9 10 9 8 8 8 7 8 7 7 7 7 6 6 5 5 4 3 3 3 3 2 2 2 2 2 2 3 3 2 3 4 3 3 4
Wind_Direction
201 166 155 76 54 47 331 279 273 326 122 125 111 105 105 84 265 271 59 136 134 140 147 148 146 141 137 134 133 132 132 132 132 132 133 134 134 134 133 131 130 127 123 119 116 114 113 112 112
151 155 133 50 74 42 293 239 173 229 170 145 101 84 65 45 52 89 117 137 137 140 142 147 148 144 140 139 139 138 138 138 138 138 137 137 138 138 136 134 133 131 128 125 122 119 118 116 115
153 165 85 64 91 184 255 228 195 159 118 133 108 83 83 63 113 127 142 139 134 136 139 152 148 146 144 144 144 144 143 143 143 143 143 143 143 142 141 139 137 136 133 131 128 125 124 122 121
121 57 54 63 276 237 231 236 183 150 116 104 121 93 81 45 145 138 138 141 134 132 138 154 149 149 149 149 149 149 150 149 149 149 149 150 150 148 147 146 144 142 140 137 133 130 130 129 127
68 77 56 16 278 264 254 231 177 152 153 133 126 118 93 12 108 128 137 142 141 136 141 155 154 153 153 154 155 156 156 156 154 154 154 156 157 157 155 154 150 148 147 144 141 139 138 136 132
63 68 77 297 281 280 282 239 138 120 136 137 126 120 99 114 127 134 136 138 141 141 141 150 158 157 158 159 160 161 162 161 161 160 162 164 165 164 163 160 160 159 158 157 153 151 149 144 138
108 104 165 244 278 293 292 97 137 150 142 152 138 121 112 127 129 125 126 128 133 134 129 134 150 160 163 164 165 167 167 167 168 168 169 170 171 170 175 173 175 173 172 171 168 166 162 157 151
134 107 269 266 252 270 293 59 21 151 145 115 116 138 163 160 130 119 118 119 126 123 117 116 121 130 146 162 169 170 172 172 172 172 173 176 179 182 187 183 186 188 188 188 186 186 181 173 167
111 81 238 238 222 247 230 90 333 77 104 94 78 111 144 135 128 124 125 127 138 138 124 116 119 122 131 148 168 169 173 175 173 176 181 175 160 166 187 198 200 204 206 205 205 206 201 191 189
113 159 230 225 209 224 226 186 186 122 111 108 94 96 123 133 137 141 148 154 159 157 148 131 131 138 144 164 150 142 155 157 151 147 155 136 129 150 184 221 215 212 214 219 222 222 220 204 182
169 204 235 248 237 224 197 176 159 146 186 186 154 141 138 141 147 151 156 159 164 157 155 149 141 146 154 150 138 132 130 132 138 144 138 123 118 105 60 50 271 258 228 222 234 232 220 191 188
193 243 237 270 286 168 163 144 109 139 207 115 136 143 144 145 151 153 154 159 154 153 150 138 144 152 161 159 151 144 136 137 143 140 137 129 127 123 111 112 294 294 191 187 207 213 222 207 202
212 256 265 270 61 105 95 92 104 56 57 86 112 123 135 138 144 148 144 146 146 155 148 145 157 160 166 166 164 146 147 143 137 130 137 140 137 135 112 81 56 15 161 168 202 217 211 225 230
227 221 327 359 70 79 107 78 77 78 86 90 104 121 130 138 147 145 147 151 150 154 147 140 146 148 147 153 141 130 137 127 120 124 132 132 129 130 110 88 62 359 266 185 184 212 210 208 210
260 59 357 7 38 89 101 62 51 148 107 107 110 124 127 134 136 147 159 159 159 153 141 134 134 126 128 134 132 123 123 119 120 119 113 119 122 125 119 114 90 354 347 78 92 122 126 188 222
41 57 340 317 21 56 115 207 259 146 129 131 135 137 130 132 136 148 155 158 155 142 140 137 143 129 127 124 109 101 100 108 110 108 110 118 123 123 114 105 83 49 58 70 95 92 125 204 251
25 354 277 304 11 72 120 199 252 73 141 146 150 153 149 145 141 158 157 156 146 145 145 143 140 136 126 112 98 84 80 84 87 86 91 106 117 119 114 105 76 64 70 60 69 71 87 217 272
259 257 263 268 330 74 108 169 169 189 163 162 165 160 157 158 161 160 148 132 131 134 135 137 131 126 121 110 93 77 69 65 67 68 76 94 100 107 106 96 82 77 74 57 54 70 56 35 285
220 229 259 271 331 94 123 164 178 172 171 175 178 171 163 164 157 143 137 132 126 124 133 137 134 131 127 118 117 113 102 76 56 50 56 73 91 100 101 96 85 83 84 70 68 84 57 23 9
206 222 243 272 39 111 113 135 215 195 204 204 192 178 167 155 145 149 140 135 136 145 142 133 133 131 130 129 133 131 123 105 85 41 44 50 76 110 129 121 113 102 89 61 54 73 81 22 32
211 195 208 180 92 59 93 355 252 247 228 225 204 178 169 168 164 159 150 149 149 154 156 150 138 131 126 124 113 96 74 57 45 31 25 13 39 89 113 126 122 114 110 101 70 88 113 82 16
237 222 161 137 119 350 85 255 264 222 228 219 203 189 185 173 163 159 153 155 163 160 152 144 139 131 128 129 127 127 125 124 118 72 40 23 32 57 94 121 129 122 113 108 29 108 123 130 85
149 82 95 97 108 54 27 164 281 196 224 227 207 197 192 182 173 171 166 164 163 154 150 144 136 131 128 122 121 116 112 119 104 79 69 48 31 38 61 88 100 99 94 89 55 75 103 147 171
123 77 61 54 66 346 251 176 270 222 212 208 198 194 192 183 174 168 162 152 149 149 148 140 139 139 135 127 123 131 136 134 122 106 89 53 29 24 41 77 87 95 94 78 70 81 106 173 192
96 94 33 356 4 261 258 225 252 240 214 194 188 190 189 182 174 169 167 164 161 159 158 154 153 150 147 139 139 145 146 144 145 147 145 135 76 18 356 50 59 61 50 26 99 75 308 244 230
172 142 159 209 236 276 293 245 255 248 211 187 176 178 180 181 181 180 180 174 170 166 163 164 163 161 160 155 155 150 147 144 152 164 169 177 191 224 263 312 314 305 312 331 100 272 281 266 261
142 169 154 127 140 292 277 277 298 196 165 171 171 173 185 186 185 185 180 175 171 171 174 174 169 168 170 168 160 159 161 163 172 177 180 191 214 238 244 265 281 292 294 287 229 258 277 277 264
127 139 108 122 147 263 292 270 245 220 197 188 187 189 194 186 185 185 181 179 177 175 172 170 170 173 172 169 172 173 177 177 174 171 190 206 229 247 253 270 278 291 296 283 254 264 266 265 268
123 112 111 114 148 158 255 272 225 202 192 189 196 195 190 187 188 187 184 177 169 164 166 170 171 168 172 175 177 171 176 175 175 190 206 208 219 229 238 251 262 269 271 267 254 260 260 261 272
166 164 149 151 197 173 185 267 263 204 194 189 193 194 193 191 187 181 173 164 165 170 173 175 175 177 180 175 171 176 178 175 184 208 216 211 225 236 239 249 259 265 264 260 253 263 262 257 265